Вернуться в каталог

RESURS O1 DEB

АктивенSSO
NORAD 23344·DEBRIS·🇷🇺 Russia

Запущен Nov 4, 1994 с Baikonur Cosmodrome

Loading…

Ближайшие Пролёты (ближайшие 24 часа)

TLE

СвежийSource: Space-Track

Эпоха: Sep 14, 2026, 11:42 UTC

1 23344U 94074C   26257.48771772  .00000503  00000-0  10465-3 0  9992
2 23344  97.9645 262.3174 0116863 155.9158 356.7052 14.60041402686260

Отслеживайте RESURS O1 DEB в реальном времени с AllMySat

Download on the App Store